| time (UTC) | temp C | wind direction | speed KPH | gust KPH | rain 1hr cm | rain 24hr cm | rain mn cm | humidity % | barometer mb |
| 20260508143004 | 12 | 27 | 3.2 | 11.3 | 0.00 | 0.00 | 0.00 | 39 | 1007.8 |
| 20260508142004 | 11 | 129 | 1.6 | 11.3 | 0.00 | 0.00 | 0.00 | 40 | 1008.1 |
| 20260508141004 | 11 | 296 | 3.2 | 9.7 | 0.00 | 0.00 | 0.00 | 42 | 1008.3 |
| 20260508140004 | 10 | 283 | 0.0 | 9.7 | 0.00 | 0.00 | 0.00 | 43 | 1008.2 |
| 20260508135004 | 9 | 260 | 3.2 | 9.7 | 0.00 | 0.00 | 0.00 | 46 | 1008.3 |
| 20260508134004 | 8 | 126 | 3.2 | 11.3 | 0.00 | 0.00 | 0.00 | 49 | 1008.2 |
| 20260508133004 | 8 | 265 | 3.2 | 12.9 | 0.00 | 0.00 | 0.00 | 50 | 1008.3 |
| 20260508132003 | 8 | 240 | 3.2 | 16.1 | 0.00 | 0.00 | 0.00 | 52 | 1008.4 |
| 20260508131004 | 7 | 256 | 4.8 | 9.7 | 0.00 | 0.00 | 0.00 | 55 | 1008.6 |
| 20260508130004 | 6 | 238 | 3.2 | 9.7 | 0.00 | 0.00 | 0.00 | 59 | 1008.3 |
| 20260508125003 | 6 | 237 | 3.2 | 9.7 | 0.00 | 0.00 | 0.00 | 63 | 1008.5 |
| 20260508124004 | 5 | 260 | 3.2 | 9.7 | 0.00 | 0.00 | 0.00 | 69 | 1008.5 |
| 20260508122004 | 2 | 275 | 1.6 | 4.8 | 0.00 | 0.00 | 0.00 | 84 | 1008.6 |
| 20260508121004 | 0 | 245 | 1.6 | 8.0 | 0.00 | 0.00 | 0.00 | 90 | 1008.4 |
| 20260508120003 | -1 | 284 | 0.0 | 1.6 | 0.00 | 0.00 | 0.00 | 92 | 1008.6 |
| 20260508115004 | -1 | 54 | 0.0 | 1.6 | 0.00 | 0.00 | 0.00 | 93 | 1008.6 |
| 20260508114004 | -2 | 69 | 0.0 | 1.6 | 0.00 | 0.00 | 0.00 | 94 | 1008.6 |
| 20260508113004 | -2 | 5 | 1.6 | 1.6 | 0.00 | 0.00 | 0.00 | 94 | 1008.5 |
| 20260508112003 | -2 | 0 | 1.6 | 3.2 | 0.00 | 0.00 | 0.00 | 94 | 1008.5 |
| 20260508110004 | -2 | 330 | 1.6 | 3.2 | 0.00 | 0.00 | 0.00 | 94 | 1008.4 |
| 20260508105004 | -2 | 305 | 1.6 | 3.2 | 0.00 | 0.00 | 0.00 | 94 | 1008.5 |
| 20260508103004 | -2 | 301 | 0.0 | 3.2 | 0.00 | 0.00 | 0.00 | 93 | 1008.4 |
| 20260508102004 | -2 | 357 | 1.6 | 3.2 | 0.00 | 0.00 | 0.00 | 93 | 1008.6 |
| 20260508101004 | -2 | 326 | 1.6 | 1.6 | 0.00 | 0.00 | 0.00 | 92 | 1008.5 |
| 20260508100004 | -2 | 32 | 0.0 | 1.6 | 0.00 | 0.00 | 0.00 | 92 | 1008.7 |
| 20260508095004 | -1 | 319 | 0.0 | 1.6 | 0.00 | 0.00 | 0.00 | 91 | 1008.6 |
| 20260508094004 | -1 | 311 | 1.6 | 3.2 | 0.00 | 0.00 | 0.00 | 90 | 1008.8 |
| 20260508093004 | -1 | 14 | 1.6 | 3.2 | 0.00 | 0.00 | 0.00 | 89 | 1008.7 |
| 20260508092003 | 0 | 8 | 1.6 | 3.2 | 0.00 | 0.00 | 0.00 | 88 | 1008.8 |
| 20260508091004 | 0 | 5 | 1.6 | 1.6 | 0.00 | 0.00 | 0.00 | 86 | 1008.7 |
| 20260508090004 | 0 | 299 | 0.0 | 1.6 | 0.00 | 0.00 | 0.00 | 85 | 1009.0 |
| 20260508085003 | 0 | 332 | 0.0 | 1.6 | 0.00 | 0.00 | 0.00 | 85 | 1008.8 |
| 20260508083004 | 0 | 38 | 1.6 | 1.6 | 0.00 | 0.00 | 0.00 | 85 | 1009.3 |
| 20260508082003 | 0 | 1 | 1.6 | 1.6 | 0.00 | 0.00 | 0.00 | 84 | 1009.2 |
| 20260508081004 | 0 | 312 | 0.0 | 0.0 | 0.00 | 0.00 | 0.00 | 84 | 1009.3 |
| 20260508080004 | 0 | 22 | 0.0 | 1.6 | 0.00 | 0.00 | 0.00 | 84 | 1009.3 |
| 20260508075004 | 0 | 30 | 0.0 | 1.6 | 0.00 | 0.00 | 0.00 | 84 | 1009.3 |
| 20260508074003 | 0 | 20 | 0.0 | 1.6 | 0.00 | 0.00 | 0.00 | 85 | 1009.4 |
| 20260508073004 | 0 | 18 | 0.0 | 1.6 | 0.00 | 0.00 | 0.00 | 85 | 1009.6 |
| 20260508072003 | 0 | 4 | 0.0 | 1.6 | 0.00 | 0.00 | 0.00 | 84 | 1009.5 |
| 20260508071003 | 0 | 38 | 0.0 | 1.6 | 0.00 | 0.00 | 0.00 | 85 | 1009.5 |
| 20260508070004 | 0 | 27 | 0.0 | 1.6 | 0.00 | 0.00 | 0.00 | 84 | 1009.5 |
| 20260508065004 | 0 | 21 | 0.0 | 1.6 | 0.00 | 0.00 | 0.00 | 84 | 1009.8 |
| 20260508064004 | 0 | 345 | 0.0 | 1.6 | 0.00 | 0.00 | 0.00 | 82 | 1009.7 |
| 20260508063003 | 0 | 304 | 0.0 | 1.6 | 0.00 | 0.00 | 0.00 | 82 | 1009.9 |
| 20260508062004 | 0 | 21 | 0.0 | 1.6 | 0.00 | 0.00 | 0.00 | 81 | 1009.9 |
| 20260508061004 | 0 | 329 | 0.0 | 1.6 | 0.00 | 0.00 | 0.00 | 80 | 1010.2 |
| 20260508060005 | 1 | 5 | 0.0 | 1.6 | 0.00 | 0.00 | 0.00 | 79 | 1010.3 |
| 20260508055004 | 1 | 329 | 0.0 | 1.6 | 0.00 | 0.00 | 0.00 | 78 | 1010.2 |
| 20260508054004 | 1 | 25 | 1.6 | 1.6 | 0.00 | 0.00 | 0.00 | 78 | 1010.2 |
| 20260508053004 | 1 | 17 | 0.0 | 1.6 | 0.00 | 0.00 | 0.00 | 77 | 1010.4 |
| 20260508052004 | 2 | 48 | 0.0 | 1.6 | 0.00 | 0.00 | 0.00 | 76 | 1010.6 |
| 20260508051003 | 2 | 0 | 0.0 | 3.2 | 0.00 | 0.00 | 0.00 | 74 | 1010.5 |
| 20260508050003 | 2 | 60 | 1.6 | 1.6 | 0.00 | 0.00 | 0.00 | 72 | 1010.6 |
| 20260508045004 | 2 | 22 | 0.0 | 3.2 | 0.00 | 0.00 | 0.00 | 70 | 1010.5 |
| 20260508043004 | 3 | 22 | 0.0 | 1.6 | 0.00 | 0.00 | 0.00 | 65 | 1010.6 |
| 20260508042004 | 4 | 49 | 0.0 | 3.2 | 0.00 | 0.00 | 0.00 | 63 | 1010.4 |
| 20260508040004 | 5 | 28 | 1.6 | 4.8 | 0.00 | 0.00 | 0.00 | 58 | 1010.5 |
| 20260508035004 | 5 | 359 | 0.0 | 1.6 | 0.00 | 0.00 | 0.00 | 54 | 1010.4 |
| 20260508034004 | 6 | 352 | 1.6 | 1.6 | 0.00 | 0.00 | 0.00 | 51 | 1010.4 |
| 20260508033004 | 7 | 47 | 1.6 | 4.8 | 0.00 | 0.00 | 0.00 | 47 | 1010.3 |
| 20260508032003 | 6 | 326 | 1.6 | 4.8 | 0.00 | 0.00 | 0.00 | 48 | 1010.4 |
| 20260508031004 | 6 | 31 | 0.0 | 3.2 | 0.00 | 0.00 | 0.00 | 47 | 1010.4 |
| 20260508030004 | 7 | 344 | 1.6 | 4.8 | 0.00 | 0.00 | 0.00 | 45 | 1010.4 |
| 20260508024004 | 7 | 297 | 3.2 | 8.0 | 0.00 | 0.00 | 0.00 | 45 | 1010.4 |
| 20260508023003 | 7 | 330 | 3.2 | 11.3 | 0.00 | 0.00 | 0.00 | 45 | 1010.6 |
| 20260508021004 | 5 | 300 | 3.2 | 12.9 | 0.00 | 0.00 | 0.00 | 53 | 1010.4 |
| 20260508015004 | 4 | 304 | 0.0 | 1.6 | 0.00 | 0.00 | 0.00 | 56 | 1010.1 |
| 20260508014004 | 4 | 315 | 0.0 | 1.6 | 0.00 | 0.00 | 0.00 | 54 | 1009.9 |
| 20260508013005 | 4 | 336 | 0.0 | 1.6 | 0.00 | 0.00 | 0.00 | 53 | 1009.7 |
| 20260508012004 | 4 | 281 | 0.0 | 1.6 | 0.00 | 0.00 | 0.00 | 55 | 1009.5 |
| 20260508011003 | 5 | 352 | 0.0 | 1.6 | 0.00 | 0.00 | 0.00 | 53 | 1009.4 |
| 20260508010004 | 5 | 346 | 0.0 | 1.6 | 0.00 | 0.00 | 0.00 | 52 | 1009.4 |
| 20260508005004 | 6 | 42 | 0.0 | 1.6 | 0.00 | 0.00 | 0.00 | 49 | 1009.2 |
| 20260508004004 | 7 | 72 | 0.0 | 3.2 | 0.00 | 0.00 | 0.00 | 46 | 1009.3 |
| 20260508001004 | 8 | 284 | 3.2 | 9.7 | 0.00 | 0.00 | 0.00 | 39 | 1009.2 |
| 20260508000003 | 10 | 245 | 6.4 | 9.7 | 0.00 | 0.00 | 0.00 | 36 | 1009.1 |
| 20260507235003 | 10 | 330 | 4.8 | 9.7 | 0.00 | 0.00 | 0.00 | 37 | 1009.1 |
| 20260507234003 | 10 | 270 | 4.8 | 11.3 | 0.00 | 0.00 | 0.00 | 36 | 1009.1 |
| 20260507233003 | 10 | 277 | 3.2 | 9.7 | 0.00 | 0.00 | 0.00 | 37 | 1009.2 |
| 20260507232004 | 9 | 278 | 3.2 | 8.0 | 0.00 | 0.00 | 0.00 | 40 | 1009.3 |
| 20260507231004 | 8 | 271 | 4.8 | 11.3 | 0.00 | 0.00 | 0.00 | 39 | 1009.5 |
| 20260507230004 | 8 | 339 | 8.0 | 11.3 | 0.00 | 0.00 | 0.00 | 39 | 1009.6 |
| 20260507225004 | 9 | 297 | 4.8 | 12.9 | 0.00 | 0.00 | 0.00 | 39 | 1009.6 |
| 20260507223005 | 9 | 330 | 4.8 | 12.9 | 0.00 | 0.00 | 0.00 | 40 | 1009.6 |
| 20260507221003 | 9 | 261 | 8.0 | 19.3 | 0.00 | 0.00 | 0.00 | 41 | 1009.6 |
| 20260507220003 | 9 | 306 | 6.4 | 12.9 | 0.00 | 0.00 | 0.00 | 40 | 1009.6 |
| 20260507215003 | 9 | 295 | 6.4 | 19.3 | 0.00 | 0.00 | 0.00 | 42 | 1009.6 |
| 20260507214004 | 9 | 259 | 8.0 | 12.9 | 0.00 | 0.00 | 0.00 | 40 | 1009.7 |
| 20260507212004 | 9 | 309 | 8.0 | 20.9 | 0.00 | 0.00 | 0.00 | 39 | 1009.7 |
| 20260507211003 | 11 | 281 | 6.4 | 12.9 | 0.00 | 0.00 | 0.00 | 36 | 1009.7 |
| 20260507205004 | 8 | 317 | 8.0 | 11.3 | 0.00 | 0.00 | 0.00 | 43 | 1010.1 |
| 20260507204004 | 8 | 330 | 4.8 | 12.9 | 0.00 | 0.00 | 0.00 | 46 | 1010.0 |
| 20260507203004 | 8 | 268 | 4.8 | 11.3 | 0.00 | 0.00 | 0.00 | 46 | 1010.2 |
| 20260507202004 | 8 | 5 | 3.2 | 11.3 | 0.00 | 0.00 | 0.00 | 48 | 1010.1 |
| 20260507201004 | 8 | 258 | 6.4 | 11.3 | 0.00 | 0.00 | 0.00 | 47 | 1010.3 |
| 20260507200003 | 7 | 297 | 3.2 | 11.3 | 0.00 | 0.00 | 0.00 | 50 | 1010.5 |
| 20260507195004 | 7 | 327 | 1.6 | 11.3 | 0.00 | 0.00 | 0.00 | 51 | 1010.6 |
| 20260507194004 | 7 | 339 | 3.2 | 22.5 | 0.00 | 0.00 | 0.00 | 48 | 1010.6 |
| 20260507193003 | 7 | 254 | 8.0 | 16.1 | 0.00 | 0.00 | 0.00 | 44 | 1010.5 |
| 20260507192003 | 8 | 258 | 1.6 | 14.5 | 0.00 | 0.00 | 0.00 | 43 | 1010.3 |
| 20260507190005 | 10 | 94 | 3.2 | 16.1 | 0.00 | 0.00 | 0.00 | 40 | 1010.2 |
| 20260507185004 | 8 | 248 | 4.8 | 14.5 | 0.00 | 0.00 | 0.00 | 43 | 1010.3 |
| 20260507184004 | 8 | 303 | 3.2 | 12.9 | 0.00 | 0.00 | 0.00 | 44 | 1010.3 |
| 20260507183003 | 8 | 275 | 6.4 | 12.9 | 0.00 | 0.00 | 0.00 | 44 | 1010.5 |
| 20260507182004 | 8 | 267 | 3.2 | 14.5 | 0.00 | 0.00 | 0.00 | 45 | 1010.5 |
| 20260507180004 | 7 | 295 | 4.8 | 22.5 | 0.00 | 0.00 | 0.00 | 44 | 1010.8 |
| 20260507173004 | 7 | 291 | 3.2 | 20.9 | 0.00 | 0.00 | 0.00 | 48 | 1011.0 |
| 20260507172004 | 7 | 246 | 8.0 | 16.1 | 0.00 | 0.00 | 0.00 | 47 | 1011.0 |
| 20260507165004 | 7 | 311 | 8.0 | 20.9 | 0.00 | 0.00 | 0.00 | 48 | 1011.3 |
| 20260507163004 | 7 | 262 | 6.4 | 14.5 | 0.00 | 0.00 | 0.00 | 50 | 1011.7 |
| 20260507162004 | 7 | 299 | 8.0 | 24.1 | 0.00 | 0.00 | 0.00 | 51 | 1011.8 |
| 20260507161004 | 7 | 210 | 4.8 | 19.3 | 0.00 | 0.00 | 0.00 | 53 | 1011.8 |
| 20260507155004 | 6 | 209 | 3.2 | 19.3 | 0.00 | 0.00 | 0.00 | 53 | 1012.1 |
| 20260507154005 | 7 | 266 | 8.0 | 14.5 | 0.00 | 0.00 | 0.00 | 55 | 1012.2 |
| 20260507153004 | 6 | 261 | 4.8 | 19.3 | 0.00 | 0.00 | 0.00 | 56 | 1012.3 |
| 20260507152004 | 6 | 281 | 9.7 | 24.1 | 0.00 | 0.00 | 0.00 | 55 | 1012.2 |
| 20260507151004 | 6 | 291 | 4.8 | 16.1 | 0.00 | 0.00 | 0.00 | 55 | 1012.2 |
| 20260507150003 | 6 | 279 | 4.8 | 11.3 | 0.00 | 0.00 | 0.00 | 55 | 1012.2 |
| 20260507145004 | 6 | 213 | 3.2 | 12.9 | 0.00 | 0.00 | 0.00 | 56 | 1012.3 |